Weather in Gremyachevo

Russia / Oryol Oblast     52°29′08″N   36°10′05″E
temp.,
°C
wind,
m/s
gust,
m/s
humid.,
%
clouds,
%
prec.,
mm/h
press.,
hPa
HPBL,
m
8 march, mon
mon800:00−4w51184100 1.0 1004302
03:00−5wsw51182100 1.0 1004237
06:00−6w5138598 0.0 1003348
09:00−6w6139375 0.0 1004518
12:00−3wnw698529 0.0 1006984
15:00−3wnw588261 0.1 1006966
18:00−6wnw338863 0.1 100829
21:00−8wnw239468 0.1 101048
9 march, tue
tue900:00−9nne239494 0.2 101031
03:00−13nnw339094 0.2 101227
06:00−13nnw339594 0.0 101344
09:00−11n479494 0.1 1016282
12:00−10nnw479091 0.0 1018499
15:00−9nnw478694 0.1 1019670
18:00−12nw239295 0.0 102021
21:00−13nw239589 0.1 102243
10 march, wed
wed1000:00−16nnw339668 0.0 102427
03:00−18nnw239434 0.0 102521
06:00−20nw22970 0.0 102720
09:00−17nw22941 0.0 102872
12:00−13nnw228955 0.0 1028270
15:00−11n119077 0.2 1028266
18:00−12ene3495100 0.4 1028218
21:00−15ene4795100 0.8 1030240
11 march, thu
thu1100:00−19e3691100 0.1 1031151
03:00−23e348971 0.1 103346
06:00−24ese34870 0.0 103331
09:00−21ese348619 0.0 1034119
12:00−16ese34816 0.0 1034241
15:00−14se34823 0.0 1034265
18:00−17ese34890 0.0 103341
21:00−20se34880 0.0 103344
12 march, fri
fri1200:00−20se45880 0.0 103466
03:00−20sse47870 0.0 103388
06:00−19sse48860 0.0 1032113
09:00−14sse612810 0.0 1032273
12:00−10sse6108231 0.0 1031397
15:00−8sse7118166 0.0 1030510
18:00−9sse71379100 0.0 1028426
21:00−9s71670100 0.0 1027492